Zurück zum Katalog

RADUGA 7

AktivMilitärGEO
NORAD 12003·PAYLOAD·🇷🇺 Russia

Gestartet Oct 5, 1980 von Baikonur Cosmodrome

Loading…

TLE

AktuellSource: Space-Track

Epoche: Sep 14, 2026, 08:32 UTC

1 12003U 80081A   26257.35601838 -.00000210  00000-0  00000-0 0  9993
2 12003   5.7384 288.4230 0012183 316.5028 209.8024  1.00284880124207

Verfolge RADUGA 7 in Echtzeit mit AllMySat

Download on the App Store